Flag for Canada Weather past 2 weeks in Brantford, Ontario, Canada

Now
43 °F

Fog.


Feels Like: 40 °F
Forecast: 42 / 60 °F
Wind: 5 mph from West

Location: Hamilton Airport

Current Time: Sep 18, 2014 at 4:46:03 AM

Latest Report: Sep 18, 2014 at 4:00 AM


Visibility: 1 mi

Pressure: 29.99 "Hg

Humidity: 100%

Dew point: 43 °F

Location of BrantfordLocation

Historic Weather in Brantford — Graph

°F

Brantford temperature yesterday

Maximum temperature yesterday: 66 °F (at 2:00 PM)
Minimum temperature yesterday: 43 °F (at 4:00 AM)
Average temperature yesterday: 54 °F

Past Weeks' High & Low Weather Summary

 TemperatureHumidityPressure
High84 °F (Sep 5, 3:00 PM)100% (Sep 3, 3:00 AM)30.36 "Hg (Sep 3, 3:00 AM)
Low41 °F (Sep 14, 6:00 AM)46% (Sep 7, 3:00 PM)29.55 "Hg (Sep 11, 4:00 AM)
Average61 °F80%30.07 "Hg
* Reported Sep 3 3:00 AM — Sep 18 3:00 AM, Brantford, Weather by CustomWeather, © 2014

Note: Actual official high and low records may vary slightly from our data, if they occured in-between our weather recording intervals... More about our weather records

Advertising

Brantford weather history for previous 24 hours

 ConditionsComfort  
Time TempWeatherWind HumidityBarometerVisibility
3:00 AM
Sep 18
45 °FFog.5 mph93%29.99 "Hg1 mi
2:00 AM46 °FFog.5 mph100%29.98 "Hg1 mi
1:00 AM48 °FClear.5 mph94%29.98 "Hg15 mi
12:00 AM48 °FClear.3 mph94%29.98 "Hg15 mi
11:00 PM
Sep 17
52 °FClear.5 mph88%29.98 "Hg15 mi
10:00 PM52 °FClear.3 mph88%29.98 "Hg15 mi
9:00 PM54 °FPassing clouds.5 mph82%29.97 "Hg15 mi
8:00 PM55 °FPassing clouds.6 mph77%29.97 "Hg15 mi
7:00 PM61 °FPartly sunny.9 mph63%29.97 "Hg12 mi
6:00 PM63 °FBroken clouds.10 mph59%29.96 "Hg8 mi
5:00 PM64 °FBroken clouds.15 mph52%29.96 "Hg12 mi
4:00 PM66 °FBroken clouds.8 mph52%29.96 "Hg9 mi
3:00 PM66 °FPartly sunny.16 mph49%29.96 "Hg15 mi
2:00 PM66 °FBroken clouds.15 mph49%29.97 "Hg15 mi
1:00 PM64 °FScattered clouds.14 mph52%29.98 "Hg15 mi
12:00 PM63 °FPassing clouds.14 mph56%30.01 "Hg15 mi
11:00 AM61 °FPassing clouds.10 mph63%30.02 "Hg15 mi
10:00 AM57 °FPassing clouds.6 mph77%30.03 "Hg15 mi
9:00 AM52 °FPassing clouds.5 mph88%30.05 "Hg15 mi
8:00 AM46 °FPassing clouds.5 mph93%30.04 "Hg15 mi
7:00 AM43 °FPassing clouds.5 mph93%30.04 "Hg15 mi
6:00 AM45 °FPassing clouds.6 mph93%30.04 "Hg15 mi
5:00 AM45 °FPassing clouds.5 mph93%30.04 "Hg15 mi
4:00 AM43 °FPassing clouds.5 mph100%30.05 "Hg15 mi
Weather by CustomWeather, © 2014

See weather overviewHow to use our weather pages